DB0TGO-13 Weather Reports


time (UTC)temp
C
wind
direction
speed
KPH
gust
KPH
rain 1hr
cm
rain 24hr
cm
rain mn
cm
humidity
%
barometer
mb
20260505204502 13 40 17.7 0.0 0.00 0.00 0.00 83 1002.1
20260505203002 13 40 17.7 0.0 0.00 0.00 0.00 83 1002.1
20260505201502 14 40 17.7 0.0 0.00 0.00 0.00 81 1002.2
20260505200002 14 40 16.1 0.0 0.00 0.00 0.00 81 1002.2
20260505194502 15 40 14.5 0.0 0.00 0.00 0.00 79 1002.0
20260505193003 15 40 14.5 0.0 0.00 0.00 0.00 79 1002.0
20260505191502 15 40 14.5 0.0 0.00 0.00 0.00 78 1001.8
20260505190003 15 60 16.1 0.0 0.00 0.00 0.00 78 1001.8
20260505184502 16 60 16.1 0.0 0.00 0.00 0.00 74 1001.9
20260505183002 16 40 12.9 0.0 0.00 0.00 0.00 74 1001.9
20260505181502 16 40 12.9 0.0 0.00 0.00 0.00 74 1001.9
20260505180002 16 50 12.9 0.0 0.00 0.00 0.00 74 1001.9
20260505174502 17 50 12.9 0.0 0.00 0.00 0.00 72 1002.0
20260505173002 17 30 11.3 0.0 0.00 0.00 0.00 72 1002.0
20260505171502 17 30 11.3 0.0 0.00 0.00 0.00 70 1002.1
20260505170002 17 20 9.7 0.0 0.00 0.00 0.00 70 1002.1
20260505164502 17 360 12.9 0.0 0.00 0.00 0.00 70 1002.3
20260505163002 17 360 12.9 0.0 0.00 0.00 0.00 70 1002.3
20260505161502 17 360 12.9 0.0 0.00 0.00 0.00 69 1002.4
20260505153002 18 360 12.9 0.0 0.00 0.00 0.00 68 1002.4
20260505151502 19 330 6.4 0.0 0.00 0.00 0.00 60 1002.4
20260505124502 17 360 4.8 0.0 0.00 0.00 0.00 69 1003.3
20260505123002 17 60 4.8 0.0 0.00 0.00 0.00 69 1003.3
20260505121502 17 60 4.8 0.0 0.00 0.00 0.00 69 1003.6
20260505120002 17 100 1.6 0.0 0.00 0.00 0.00 69 1003.6
20260505114502 17 330 3.2 0.0 0.00 0.00 0.00 70 1003.8
20260505113002 17 330 3.2 0.0 0.00 0.00 0.00 70 1003.8
20260505111502 17 330 1.6 0.0 0.00 0.00 0.00 75 1003.9
20260505101502 16 20 3.2 0.0 0.00 0.00 0.00 76 1003.9
20260505100002 16 110 1.6 0.0 0.00 0.00 0.00 76 1003.9
20260505094502 15 110 1.6 0.0 0.00 0.00 0.00 78 1004.1
20260505093002 15 60 4.8 0.0 0.00 0.00 0.00 78 1004.1
20260505091502 15 90 4.8 0.0 0.00 0.00 0.00 80 1004.2
20260505090002 15 90 4.8 0.0 0.00 0.00 0.00 80 1004.2
20260505084502 15 90 6.4 0.0 0.00 0.00 0.00 79 1004.3
20260505083002 15 90 6.4 0.0 0.00 0.00 0.00 79 1004.3
20260505081502 14 90 6.4 0.0 0.00 0.00 0.00 79 1004.2
20260505080002 14 80 11.3 0.0 0.00 0.00 0.00 79 1004.2
20260505074502 14 80 11.3 0.0 0.00 0.00 0.00 80 1004.2
20260505073002 14 70 9.7 0.0 0.00 0.00 0.00 80 1004.2
20260505071502 13 60 11.3 0.0 0.00 0.00 0.00 80 1004.3
20260505070002 13 60 11.3 0.0 0.00 0.00 0.00 80 1004.3
20260505064502 13 60 11.3 0.0 0.00 0.00 0.00 82 1004.6
20260505063002 13 50 9.7 0.0 0.00 0.00 0.00 82 1004.6
20260505061502 13 50 9.7 0.0 0.00 0.00 0.00 82 1004.5
20260505060002 13 40 9.7 0.0 0.00 0.00 0.00 82 1004.5
20260505054502 13 40 9.7 0.0 0.00 0.00 0.00 80 1004.5
20260505053002 13 30 6.4 0.0 0.00 0.00 0.00 80 1004.5
20260505051502 13 30 6.4 0.0 0.00 0.00 0.00 83 1004.7
20260505041502 13 30 6.4 0.0 0.00 0.00 0.00 81 1004.8
20260505040003 13 30 6.4 0.0 0.00 0.00 0.00 81 1004.8
20260505034502 13 10 3.2 0.0 0.00 0.00 0.00 81 1004.9
20260505033002 13 10 3.2 0.0 0.00 0.00 0.00 81 1004.9
20260505031502 13 10 3.2 0.0 0.00 0.00 0.00 77 1005.3
20260505030003 13 90 4.8 0.0 0.00 0.00 0.00 77 1005.3